Regional Weather Roundup
Issued by NWS

Home | Current Version | Previous Version | Graphics & Text | Print | Product List | Glossary On
Versions: 1 2 3 4 5 6 7 8 9 10 11 12 13 14 15 16 17 18 19 20 21 22 23 24 25 26 27 28 29 30 31 32 33 34 35 36 37 38 39 40 41 42 43 44 45 46 47 48 49 50
000
ASUS45 KTFX 301010
RWRMT
MONTANA REGIONAL WEATHER ROUNDUP
NATIONAL WEATHER SERVICE GREAT FALLS MT
400 AM MDT SUN APR 30 2017

NOTE: "FAIR" INDICATES FEW OR NO CLOUDS BELOW 12000 FEET WITH NO
SIGNIFICANT WEATHER AND/OR OBSTRUCTIONS TO VISIBILITY.

MTZ001>007-043-301100-
WEST OF THE DIVIDE

CITY           SKY/WX    TMP DP  RH WIND       PRES   REMARKS
KALISPELL      CLOUDY    47  31  53 SW5       30.00R
MISSOULA       CLOUDY    48  33  56 N5        30.04F
BUTTE          CLOUDY    38  25  59 NW3       30.06S
MULLAN PASS    FLURRIES  31  28  89 VRB6      30.02S WCI  25
ANACONDA         N/A     43  28  56 SW5       30.05F
DEER LODGE       N/A     43  27  52 CALM      30.06S
EUREKA           N/A     46  32  57 S6        30.00S
HAMILTON         N/A     50  28  43 SE8       30.05S
LIBBY            N/A     45  37  76 SE8       30.01S
$$

MTZ008-052>055-301100-
SOUTHWEST MONTANA

CITY           SKY/WX    TMP DP  RH WIND       PRES   REMARKS
BOZEMAN        CLOUDY    36  30  79 SE8       30.04F WCI  30
DILLON         CLOUDY    42  25  50 S13       30.06S
W YELLOWSTONE  CLOUDY    32  23  69 SW6       30.13S WCI  26
THREE FORKS      N/A     34  34 100 CALM      30.02F
$$

MTZ009-010-012-014-046-048-049-054-301100-
EAST SLOPES AND CENTRAL MONTANA

CITY           SKY/WX    TMP DP  RH WIND       PRES   REMARKS
CUT BANK       CLOUDY    44  29  55 SW24G32   29.89R
GREAT FALLS    CLOUDY    44  29  55 SW10      29.93F
MALMSTROM AFB  CLOUDY    42  31  64 SW12      29.93F
HELENA         CLOUDY    49  26  41 W7        30.00F
AUGUSTA        CLOUDY    43  26  51 S3        29.92F
BOWMANS CRNR   CLOUDY    42  26  52 S12       29.93S
CHOTEAU          N/A     45  30  57 SW10      29.93S
FAIRFIELD      CLOUDY    46  28  49 SW13      29.91F
POWER          CLOUDY    41  32  70 SW8       29.91F
RAYNESFORD     MOCLDY    47  24  40 SW17      29.94F
ULM            MOCLDY    47  28  46 W17       29.94F
$$

MTZ011-013-016-021-045-047-050-051-301100-
NORTH CENTRAL MONTANA

CITY           SKY/WX    TMP DP  RH WIND       PRES   REMARKS
HAVRE          CLOUDY    37  34  89 W3        29.90F
LEWISTOWN      PTCLDY    36  28  73 S8        29.95F WCI  30
N BAR RANCH      N/A     36  27  69 W7        30.01S WCI  30
CHINOOK          N/A     41  36  81 E5        29.91F
DENTON         MOCLDY    35  28  78 MISG      29.91F
GEYSER         MOCLDY    37  26  64 CALM      29.94F
GRASS RANGE    MOCLDY    37  31  76 SW9       29.93F WCI  31
JUDITH GAP     MOCLDY    33  28  82 S12       29.99S WCI  24
STANFORD       MOCLDY    37  28  72 SW5       29.95F
WINIFRED         N/A     44  30  59 SW13      29.93F
$$

MTZ017>020-022>027-061-062-301100-
NORTHEAST MONTANA

CITY           SKY/WX    TMP DP  RH WIND       PRES   REMARKS
GLASGOW        MOCLDY    37  30  75 SE9       29.97F WCI  30
JORDAN           N/A     37  27  67 CALM      29.98F
SIDNEY         CLEAR     32  26  78 S6        30.04S WCI  26
WOLF POINT     CLEAR     33  27  78 NE5       30.00F
MALTA          CLOUDY    45  36  70 W5        29.94F
PLENTYWOOD       N/A     43  30  61 S5        30.00S
POPLAR           N/A     39  27  60 CALM      30.01F
SCOBEY           N/A     48  30  50 S6        29.95F
$$

MTZ028>42-056>058-301100-
SOUTHCENTRAL AND SOUTHEAST MONTANA

CITY           SKY/WX    TMP DP  RH WIND       PRES   REMARKS
BILLINGS       CLEAR     41  28  60 W9        30.01S
LIVINGSTON     CLOUDY    33  26  75 NW13      30.02R WCI  24
MILES CITY     CLEAR     35  26  69 S8        30.04F WCI  29
BIG TIMBER     CLEAR     41  28  60 W9        30.04S
LAUREL           N/A     42  25  51 S7        29.99F
ROUNDUP          N/A     38  26  62 S3        29.92S
$$

REGIONAL REPORTS...DAKOTAS

CITY           SKY/WX    TMP DP  RH WIND       PRES   REMARKS
WILLISTON      CLEAR     41  28  60 S6        30.03S
MINOT          CLEAR     46  22  38 S9        30.06F
DICKINSON      CLEAR     28  18  66 S10       30.06F WCI  19
BEACH            N/A     30  23  74 S7        30.08F WCI  23
TIOGA            N/A     37  30  75 S12       30.04F WCI  30
WATFORD CITY     N/A     32  27  80 CALM      30.04F
BISMARCK       CLEAR     35  25  66 CALM      30.14S
GRAND FORKS    PTCLDY    38  32  79 CALM      30.15S
FARGO          MOCLDY    41  27  57 SE7       30.16R
BUFFALO SD       N/A     32  22  66 NW7       30.02F WCI  26
RAPID CITY     CLEAR     33  21  61 NW10      30.08F WCI  25
$$

REGIONAL REPORTS...WYOMING/IDAHO/WASHINGTON

CITY           SKY/WX    TMP DP  RH WIND       PRES   REMARKS
GILLETTE       CLEAR     26  18  71 S10       30.07F WCI  16
SHERIDAN       CLEAR     24  20  84 CALM      30.05F
BUFFALO WY     CLEAR     34  15  46 CALM      30.06F
CODY           CLEAR     28  25  88 CALM      30.07F
YELLOWSTONE LA   N/A     16  15  96 CALM      30.15F
IDAHO FALLS    CLOUDY    39  26  59 SW10      30.14R
SALMON         CLOUDY    43  30  61 CALM      30.08
BOISE          CLOUDY    48  31  51 SE7       30.10F
SPOKANE        LGT RAIN  48  33  56 S17       30.00F
$$

REGIONAL REPORTS...ALBERTA

CITY           SKY/WX    TMP DP  RH WIND       PRES   REMARKS
EDMONTON       CLOUDY    41  36  81 E5        29.79F
CALGARY        MOCLDY    45  27  49 SW5       29.77S
LETHBRIDGE     CLOUDY    48  30  49 W12       29.84S
MEDICINE HAT   MOCLDY    45  34  65 S10       29.84F
CARDSTON         N/A     43  30  61 SW7         N/A
MILK RIVER       N/A     45  36  70 SW7         N/A
$$

REGIONAL REPORTS...SASKATCHEWAN

CITY           SKY/WX    TMP DP  RH WIND       PRES   REMARKS
SWIFT CURRENT  MOCLDY    41  36  81 S12       29.88F
REGINA         CLEAR     36  34  93 SE9       29.96F WCI  29
SASKATOON      PTCLDY    34  30  86 E5        29.94F
VAL MARIE        N/A     34  32  93 E1          N/A
ROCKGLEN         N/A     34  30  86 S10         N/A  WCI  26
ASSINIBOIA       N/A     39  36  87 SE5         N/A
$$



USA.gov is the U.S. government's official web portal to all federal, state and local government web resources and services.